User: anonymous   Login
Location: Antichan
(42.9728°N, 0.6667°E)
Time: 18:12:18
(UTC+00:00)
Language:

GP-B - Orbit

View from above orbital plane
View from above orbital plane
View from above satellite
View from above satellite

Ground track
Ground track

The orbit data is extracted from the following two-line orbital elements,

1 28230U 04014A   20298.20131342  .00000153  00000-0  18569-4 0  9993
2 28230  89.8115  95.6993 0003295  94.9996 265.1603 14.78755833890118
Epoch (UTC): 24 October 2020 04:49:53
Eccentricity: 0.0003295
inclination: 89.8115°
perigee height: 631 km
apogee height: 635 km
right ascension of ascending node: 95.6993°
argument of perigee: 94.9996°
revolutions per day: 14.78755833
mean anomaly at epoch: 265.1603°
orbit number at epoch: 89011

The dashed part of the orbit path shows where the satellite is in the earth's shadow,  

DLR